• In Czech Republic
  • List of Countries
  • For 7 days
  • Water Temperature
  • Satellite Maps
  • Weather Map
  • Weather Widgets
  • user-avatar
    Login

    Hourly Weather Tonton

    Today, 23 February, Friday

    Time Temperature Precipitation Wind Pressure Humidity
    00:00 -2°C° 0 mm 5 mps 764 mmHg 78%
    01:00 -2°C° 0 mm 4 mps 764 mmHg 81%
    02:00 -2°C° 0 mm 4 mps 763 mmHg 83%
    03:00 -2°C° 0 mm 4 mps 763 mmHg 86%
    04:00 -2°C° 0 mm 4 mps 763 mmHg 86%
    05:00 -2°C° 0 mm 5 mps 763 mmHg 87%
    06:00 -2°C° 0 mm 5 mps 763 mmHg 87%
    07:00 -2°C° 0 mm 5 mps 763 mmHg 81%
    08:00 -2°C° 0 mm 6 mps 763 mmHg 74%
    09:00 -1°C° 0 mm 7 mps 763 mmHg 68%
    10:00 0°C° 0 mm 7 mps 763 mmHg 64%
    11:00 +2°C° 0 mm 7 mps 763 mmHg 60%
    12:00 +3°C° 0 mm 7 mps 763 mmHg 56%
    13:00 +3°C° 0 mm 7 mps 762 mmHg 56%
    14:00 +3°C° 0 mm 7 mps 762 mmHg 55%
    15:00 +4°C° 0 mm 7 mps 761 mmHg 55%
    16:00 +3°C° 0 mm 7 mps 761 mmHg 60%
    17:00 +1°C° 0 mm 6 mps 761 mmHg 66%
    18:00 -1°C° 0 mm 6 mps 761 mmHg 71%
    19:00 -1°C° 0 mm 6 mps 761 mmHg 74%
    20:00 -2°C° 0 mm 6 mps 761 mmHg 77%
    21:00 -2°C° 0 mm 6 mps 761 mmHg 80%
    22:00 -3°C° 0 mm 6 mps 761 mmHg 81%
    23:00 -3°C° 0 mm 6 mps 761 mmHg 81%

    Tomorrow, 24 February, Saturday

    Time Temperature Precipitation Wind Pressure Humidity
    00:00 -2°C° 0 mm 5 mps 761 mmHg 82%
    01:00 -2°C° 0 mm 5 mps 761 mmHg 80%
    02:00 -2°C° 0 mm 5 mps 761 mmHg 78%
    03:00 -2°C° 0 mm 5 mps 761 mmHg 76%
    04:00 -4°C° 0 mm 5 mps 761 mmHg 74%
    05:00 -4°C° 0 mm 6 mps 761 mmHg 72%
    06:00 -4°C° 0 mm 6 mps 761 mmHg 70%
    07:00 -3°C° 0 mm 6 mps 762 mmHg 65%
    08:00 -3°C° 0 mm 6 mps 762 mmHg 60%
    09:00 -2°C° 0 mm 7 mps 763 mmHg 55%
    10:00 -1°C° 0 mm 7 mps 763 mmHg 53%
    11:00 +2°C° 0 mm 7 mps 763 mmHg 52%
    12:00 +3°C° 0 mm 7 mps 763 mmHg 50%
    13:00 +3°C° 0 mm 7 mps 763 mmHg 51%
    14:00 +4°C° 0 mm 7 mps 763 mmHg 51%
    15:00 +4°C° 0 mm 7 mps 763 mmHg 52%
    16:00 +3°C° 0 mm 7 mps 763 mmHg 54%
    17:00 0°C° 0 mm 7 mps 763 mmHg 56%
    18:00 -1°C° 0 mm 6 mps 763 mmHg 58%
    19:00 -1°C° 0 mm 6 mps 764 mmHg 60%
    20:00 -2°C° 0 mm 7 mps 764 mmHg 62%
    21:00 -2°C° 0 mm 7 mps 764 mmHg 63%
    22:00 -2°C° 0 mm 7 mps 764 mmHg 66%
    23:00 -2°C° 0 mm 7 mps 765 mmHg 69%

    Day after tomorrow, 25 February, Sunday

    Time Temperature Precipitation Wind Pressure Humidity
    00:00 -2°C° 0 mm 7 mps 765 mmHg 72%
    01:00 -3°C° 0 mm 7 mps 765 mmHg 72%
    02:00 -3°C° 0 mm 7 mps 765 mmHg 72%
    03:00 -3°C° 0 mm 7 mps 765 mmHg 73%
    04:00 -3°C° 0 mm 7 mps 765 mmHg 71%
    05:00 -3°C° 0 mm 7 mps 765 mmHg 69%
    06:00 -4°C° 0 mm 7 mps 766 mmHg 67%
    07:00 -4°C° 0 mm 8 mps 766 mmHg 63%
    08:00 -2°C° 0 mm 8 mps 766 mmHg 60%
    09:00 -3°C° 0 mm 9 mps 767 mmHg 57%
    10:00 -1°C° 0 mm 9 mps 767 mmHg 54%
    11:00 0°C° 0 mm 9 mps 767 mmHg 51%
    12:00 +1°C° 0 mm 8 mps 767 mmHg 48%
    13:00 +2°C° 0 mm 8 mps 767 mmHg 47%
    14:00 +2°C° 0 mm 8 mps 767 mmHg 46%
    15:00 +2°C° 0 mm 8 mps 767 mmHg 45%
    16:00 +1°C° 0 mm 8 mps 767 mmHg 47%
    17:00 0°C° 0 mm 7 mps 767 mmHg 50%
    18:00 -2°C° 0 mm 7 mps 768 mmHg 52%
    19:00 -2°C° 0 mm 7 mps 768 mmHg 55%
    20:00 -3°C° 0 mm 7 mps 768 mmHg 57%
    21:00 -4°C° 0 mm 7 mps 769 mmHg 60%
    22:00 -4°C° 0 mm 7 mps 769 mmHg 61%
    23:00 -4°C° 0 mm 7 mps 769 mmHg 63%

    26 February, Monday

    Time Temperature Precipitation Wind Pressure Humidity
    00:00 -4°C° 0 mm 7 mps 769 mmHg 64%
    01:00 -4°C° 0 mm 7 mps 769 mmHg 65%
    02:00 -4°C° 0 mm 6 mps 769 mmHg 65%
    03:00 -4°C° 0 mm 6 mps 769 mmHg 65%
    04:00 -4°C° 0 mm 6 mps 769 mmHg 65%
    05:00 -5°C° 0 mm 6 mps 769 mmHg 64%
    06:00 -5°C° 0 mm 6 mps 769 mmHg 64%
    07:00 -4°C° 0 mm 7 mps 769 mmHg 62%
    08:00 -3°C° 0 mm 7 mps 770 mmHg 60%
    09:00 -4°C° 0 mm 8 mps 770 mmHg 58%
    10:00 -2°C° 0 mm 8 mps 770 mmHg 56%
    11:00 -1°C° 0 mm 8 mps 770 mmHg 54%
    12:00 0°C° 0 mm 8 mps 770 mmHg 52%
    13:00 0°C° 0 mm 8 mps 769 mmHg 51%
    14:00 0°C° 0 mm 8 mps 769 mmHg 50%
    15:00 0°C° 0 mm 8 mps 769 mmHg 49%
    16:00 -1°C° 0 mm 7 mps 769 mmHg 51%
    17:00 -2°C° 0 mm 7 mps 769 mmHg 53%
    18:00 -3°C° 0 mm 6 mps 769 mmHg 56%
    19:00 -4°C° 0 mm 6 mps 769 mmHg 58%
    20:00 -4°C° 0 mm 6 mps 769 mmHg 61%
    21:00 -5°C° 0 mm 6 mps 769 mmHg 63%
    22:00 -5°C° 0 mm 6 mps 769 mmHg 67%
    23:00 -5°C° 0 mm 6 mps 769 mmHg 70%

    27 February, Tuesday

    Time Temperature Precipitation Wind Pressure Humidity
    00:00 -6°C° 0 mm 6 mps 769 mmHg 73%
    01:00 -6°C° 0 mm 6 mps 769 mmHg 73%
    02:00 -6°C° 0 mm 6 mps 769 mmHg 73%
    03:00 -6°C° 0 mm 6 mps 768 mmHg 73%
    04:00 -6°C° 0 mm 6 mps 768 mmHg 73%
    05:00 -6°C° 0 mm 6 mps 768 mmHg 73%
    06:00 -6°C° 0 mm 6 mps 767 mmHg 74%
    07:00 -5°C° 0 mm 6 mps 767 mmHg 69%
    08:00 -4°C° 0 mm 6 mps 767 mmHg 64%
    09:00 -3°C° 0 mm 6 mps 767 mmHg 59%
    10:00 -3°C° 0 mm 6 mps 767 mmHg 55%
    11:00 -1°C° 0 mm 5 mps 766 mmHg 51%
    12:00 0°C° 0 mm 5 mps 766 mmHg 47%
    13:00 0°C° 0.1 mm 4 mps 765 mmHg 50%
    14:00 +1°C° 0.1 mm 3 mps 765 mmHg 53%
    15:00 +1°C° 0.1 mm 3 mps 764 mmHg 56%
    16:00 0°C° 0.1 mm 3 mps 764 mmHg 62%
    17:00 -1°C° 0.1 mm 2 mps 763 mmHg 68%
    18:00 -2°C° 0.1 mm 2 mps 763 mmHg 74%
    19:00 -2°C° 0.1 mm 2 mps 763 mmHg 73%
    20:00 -4°C° 0.1 mm 3 mps 763 mmHg 73%
    21:00 -4°C° 0.1 mm 3 mps 763 mmHg 73%
    22:00 -5°C° 0 mm 3 mps 763 mmHg 72%
    23:00 -5°C° 0 mm 3 mps 762 mmHg 72%

    28 February, Wednesday

    Time Temperature Precipitation Wind Pressure Humidity
    00:00 -5°C° 0 mm 3 mps 762 mmHg 71%
    01:00 -6°C° 0 mm 3 mps 762 mmHg 72%
    02:00 -6°C° 0 mm 3 mps 761 mmHg 72%
    03:00 -7°C° 0 mm 4 mps 761 mmHg 73%
    04:00 -7°C° 0 mm 4 mps 761 mmHg 75%
    05:00 -7°C° 0 mm 4 mps 760 mmHg 77%
    06:00 -8°C° 0 mm 4 mps 760 mmHg 79%
    07:00 -7°C° 0 mm 5 mps 760 mmHg 77%
    08:00 -6°C° 0 mm 5 mps 760 mmHg 74%
    09:00 -5°C° 0 mm 5 mps 759 mmHg 72%
    10:00 -4°C° 0 mm 5 mps 759 mmHg 64%
    11:00 -2°C° 0 mm 5 mps 758 mmHg 56%
    12:00 -2°C° 0 mm 6 mps 758 mmHg 48%
    13:00 -2°C° 0.1 mm 6 mps 757 mmHg 47%
    14:00 -2°C° 0.1 mm 6 mps 756 mmHg 45%
    15:00 -2°C° 0.1 mm 6 mps 755 mmHg 43%
    16:00 -2°C° 0.1 mm 5 mps 755 mmHg 49%
    17:00 -4°C° 0.1 mm 5 mps 755 mmHg 56%
    18:00 -5°C° 0.1 mm 5 mps 754 mmHg 62%
    19:00 -6°C° 0 mm 5 mps 754 mmHg 62%
    20:00 -6°C° 0 mm 6 mps 754 mmHg 63%
    21:00 -8°C° 0 mm 6 mps 754 mmHg 63%
    22:00 -8°C° 0 mm 6 mps 754 mmHg 63%
    23:00 -9°C° 0 mm 7 mps 753 mmHg 64%
    Show more